Location: De Greiden
(52.9496°N, 5.9137°E)
Time: 02:10:39
(UTC+00:00)

Cosmos 2297 Rocket - Pass Details

Date: 24 January 2021
Orbit: 841 x 842 km, 71.0° (Epoch: 26 February)

Event Time Altitude Azimuth Distance (km) Brightness Sun altitude
Rises 17:28:11 0° 279° (W) 3,400 6.7 -12.1°
Reaches altitude 10° 17:31:38 10° 300° (WNW) 2,467 5.3 -12.6°
Maximum altitude 17:35:07 16° 338° (NNW) 2,055 4.3 -13.1°
Drops below altitude 10° 17:38:36 10° 17° (NNE) 2,471 4.3 -13.6°
Enters shadow 17:40:04 - 27° (NNE) 2,829 4.6 -13.8°
